Location: Newark
(29.9790°N, 31.1340°E)
Time: 13:14:35
(UTC+00:00)

Courier 1B - Visible Passes

Search period start: 20 January 2020 00:00
Search period end: 30 January 2020 00:00
Orbit: 962 x 1209 km, 28.3° (Epoch: 19 January)

Date Brightness Start Highest point End Pass type
(mag) Time Alt. Az. Time Alt. Az. Time Alt. Az.
20 Jan 10.4 00:35:20 11° ESE 00:35:20 11° ESE 00:35:30 10° E visible
20 Jan 8.2 02:22:15 50° SSW 02:23:26 55° SSE 02:31:03 10° E visible
20 Jan 8.1 04:09:56 10° W 04:17:44 79° S 04:25:37 10° E visible
21 Jan 9.1 01:32:05 35° ESE 01:32:05 35° ESE 01:36:54 10° E visible
21 Jan 8.0 03:18:59 26° WSW 03:23:43 76° S 03:31:36 10° E visible
22 Jan 10.3 00:41:50 13° E 00:41:50 13° E 00:42:38 10° E visible
22 Jan 7.9 02:28:43 62° SSW 02:29:45 69° SSE 02:37:33 10° E visible
22 Jan 8.1 04:16:24 10° W 04:24:10 80° S 04:32:04 10° E visible
23 Jan 8.8 01:38:25 41° ESE 01:38:25 41° ESE 01:43:27 10° E visible
23 Jan 7.9 03:25:19 25° W 03:30:09 80° S 03:38:02 10° E visible
24 Jan 10.2 00:48:04 15° E 00:48:04 15° E 00:49:19 10° E visible
24 Jan 7.8 02:34:58 65° WSW 02:36:09 78° S 02:43:59 10° E visible
25 Jan 8.6 01:44:36 47° E 01:44:36 47° E 01:49:54 10° E visible
25 Jan 8.0 03:31:30 23° W 03:36:35 77° S 03:44:26 10° ESE visible
26 Jan 10.0 00:54:12 17° E 00:54:12 17° E 00:55:49 10° E visible
26 Jan 7.8 02:41:06 60° WSW 02:42:35 80° S 02:50:25 10° E visible
27 Jan 8.4 01:50:41 52° ESE 01:50:41 52° ESE 01:56:20 10° E visible
27 Jan 8.1 03:37:35 20° W 03:42:58 66° SSW 03:50:43 10° ESE visible
28 Jan 9.9 01:00:18 19° E 01:00:18 19° E 01:02:16 10° E visible
28 Jan 7.8 02:47:11 53° WSW 02:49:01 73° S 02:56:46 10° ESE visible
29 Jan 8.2 01:56:47 56° ESE 01:56:47 56° ESE 02:02:44 10° E visible
29 Jan 8.4 03:43:41 17° W 03:49:17 50° SSW 03:56:46 10° SE visible
